Cleveland Municipal Airport, MS

8:30 AM CDT on May 29, 2017 (GMT -0500)
Cleveland Municipal

Weather History for KRNV - March, 2014

Change the Weather History Date:

Sunday, March 2, 2014

  Actual Average (KGLH) Record (KGLH)
Temperature  
Mean Temperature 53 °F -  
Max Temperature 73 °F 60 °F 82 °F (1945)
Min Temperature 33 °F 41 °F 19 °F (1980)
Degree Days  
Heating Degree Days 12    
Growing Degree Days 3 (Base 50)    
Moisture  
Dew Point 48 °F    
Average Humidity 92    
Maximum Humidity 98    
Minimum Humidity 68    
Precipitation  
Precipitation 0.45 in - - ()
Sea Level Pressure  
Sea Level Pressure 30.02 in    
Wind  
Wind Speed 14 mph (WSW)    
Max Wind Speed 23 mph    
Max Gust Speed 31 mph    
Visibility 9 miles    
Events Rain , Snow , Thunderstorm    
Averages and records for this station are not official NWS values.
T = Trace of Precipitation, MM = Missing Value Source: NWS Daily Summary

Daily Weather History Graph

Daily Weather History Graph

Search for Another Location

Airport or City:

Trip Planner

Search our weather history database for the weather conditions in past years. The results will help you decide how hot, cold, wet, or windy it might be!

Date:

Astronomy

Mar. 02, 2014 Rise Set
Actual Time 6:30 AM CST 6:00 PM CST
Civil Twilight 6:05 AM CST 6:25 PM CST
Nautical Twilight 5:36 AM CST 6:54 PM CST
Astronomical Twilight 5:07 AM CST 7:23 PM CST
Moon 7:07 AM CST (3/2) 7:49 PM CST (3/2)
Length of Visible Light 12h 20m
Length of Day
11h 30m
Waxing Crescent, 3% of the Moon is Illuminated
Mar 2
Waxing Crescent
Mar 8
First Quarter
Mar 16
Full
Mar 23
Last Quarter
Mar 30
New

Hourly Weather History & Observations

Time (CST) Temp. Windchill Dew Point Humidity Pressure Visibility Wind Dir Wind Speed Gust Speed Precip Events Conditions
12:15 AM 61.0 °F - 56.7 °F 86% 30.02 in 10.0 mi South 12.7 mph 17.3 mph N/A   Clear
12:35 AM 60.3 °F - 56.5 °F 87% 30.02 in 10.0 mi South 11.5 mph 16.1 mph N/A   Clear
12:55 AM 59.9 °F - 56.5 °F 88% 30.02 in 10.0 mi South 10.4 mph - N/A   Clear
1:15 AM 59.0 °F - 55.9 °F 90% 30.02 in 10.0 mi South 6.9 mph - N/A   Clear
1:35 AM 59.4 °F - 56.3 °F 90% 30.02 in 10.0 mi South 11.5 mph 16.1 mph N/A   Clear
1:55 AM 59.0 °F - 56.3 °F 91% 30.02 in 10.0 mi South 11.5 mph - N/A   Clear
2:15 AM 59.0 °F - 56.5 °F 91% 30.02 in 10.0 mi South 10.4 mph 16.1 mph N/A   Clear
2:35 AM 58.6 °F - 56.5 °F 93% 30.02 in 10.0 mi South 10.4 mph 16.1 mph N/A   Clear
2:55 AM 59.9 °F - 57.4 °F 91% 30.02 in 10.0 mi South 9.2 mph - N/A   Clear
3:15 AM 59.7 °F - 57.6 °F 93% 30.03 in 10.0 mi SSW 8.1 mph - N/A   Scattered Clouds
3:35 AM 59.2 °F - 57.2 °F 93% 30.05 in 10.0 mi SSW 6.9 mph - N/A   Mostly Cloudy
3:55 AM 58.3 °F - 56.8 °F 95% 30.06 in 10.0 mi SSW 8.1 mph - N/A   Mostly Cloudy
4:15 AM 58.3 °F - 57.2 °F 96% 30.05 in 10.0 mi South 8.1 mph - N/A   Overcast
4:35 AM 58.6 °F - 57.4 °F 96% 30.06 in 10.0 mi South 5.8 mph - N/A   Overcast
4:55 AM 58.6 °F - 57.4 °F 96% 30.07 in 10.0 mi South 8.1 mph - N/A   Overcast
5:15 AM 59.0 °F - 57.7 °F 96% 30.06 in 10.0 mi South 10.4 mph - N/A   Overcast
5:35 AM 59.4 °F - 58.1 °F 96% 30.05 in 10.0 mi South 12.7 mph - N/A   Overcast
5:55 AM 59.0 °F - 58.1 °F 97% 30.06 in 10.0 mi South 9.2 mph - N/A   Overcast
6:15 AM 59.4 °F - 58.5 °F 97% 30.07 in 10.0 mi South 11.5 mph - N/A   Overcast
6:35 AM 59.4 °F - 58.5 °F 97% 30.07 in 10.0 mi South 11.5 mph - N/A   Overcast
6:55 AM 59.5 °F - 59.0 °F 98% 30.07 in 10.0 mi South 10.4 mph - N/A   Mostly Cloudy
7:15 AM 59.9 °F - 59.2 °F 97% 30.07 in 10.0 mi South 12.7 mph - N/A   Scattered Clouds
7:35 AM 60.4 °F - 59.5 °F 97% 30.07 in 10.0 mi South 13.8 mph - N/A   Mostly Cloudy
7:55 AM 61.7 °F - 60.3 °F 95% 30.08 in 10.0 mi South 12.7 mph - N/A   Mostly Cloudy
8:15 AM 62.2 °F - 60.8 °F 95% 30.09 in 10.0 mi SSW 13.8 mph - N/A   Mostly Cloudy
8:35 AM 62.6 °F - 60.8 °F 94% 30.09 in 10.0 mi SSW 10.4 mph - N/A   Overcast
8:55 AM 65.1 °F - 62.1 °F 90% 30.09 in 10.0 mi South 13.8 mph - N/A   Scattered Clouds
9:15 AM 65.5 °F - 61.9 °F 88% 30.09 in 10.0 mi South 17.3 mph 21.9 mph N/A   Scattered Clouds
9:35 AM 67.3 °F - 62.4 °F 84% 30.08 in 10.0 mi South 16.1 mph - N/A   Mostly Cloudy
9:55 AM 67.3 °F - 62.1 °F 83% 30.08 in 10.0 mi South 20.7 mph - N/A   Mostly Cloudy
10:15 AM 68.9 °F - 62.6 °F 80% 30.07 in 10.0 mi South 20.7 mph 25.3 mph N/A   Scattered Clouds
10:35 AM 70.3 °F - 62.8 °F 77% 30.06 in 10.0 mi SSW 19.6 mph 24.2 mph N/A   Clear
10:55 AM 71.6 °F - 62.8 °F 74% 30.05 in 10.0 mi South 21.9 mph 28.8 mph N/A   Scattered Clouds
11:15 AM 72.7 °F - 62.8 °F 71% 30.04 in 10.0 mi SSW 19.6 mph 25.3 mph N/A   Mostly Cloudy
11:35 AM 73.9 °F - 62.8 °F 68% 30.03 in 10.0 mi South 16.1 mph 26.5 mph N/A   Mostly Cloudy
11:55 AM 56.8 °F - 51.8 °F 83% 30.03 in 5.0 mi North 11.5 mph 18.4 mph N/A   Haze
12:15 PM 54.7 °F - 50.0 °F 84% 30.02 in 5.0 mi NNE 15.0 mph - N/A   Haze
12:35 PM 53.4 °F - 48.9 °F 85% 30.02 in 5.0 mi North 13.8 mph - N/A Thunderstorm Overcast
12:55 PM 51.3 °F - 47.1 °F 86% 30.02 in 5.0 mi North 15.0 mph 23.0 mph N/A   Overcast
1:15 PM 46.4 °F 39.5 °F 43.2 °F 88% 30.01 in 5.0 mi North 17.3 mph 24.2 mph N/A   Overcast
1:35 PM 45.1 °F 38.1 °F 42.3 °F 90% 30.00 in 5.0 mi North 16.1 mph - N/A   Overcast
1:55 PM 43.3 °F 35.2 °F 40.8 °F 91% 30.00 in 5.0 mi NNE 18.4 mph - N/A   Overcast
2:15 PM 42.1 °F 33.3 °F 40.1 °F 93% 29.98 in 5.0 mi NNE 19.6 mph - N/A Thunderstorm Overcast
2:35 PM 40.8 °F 32.0 °F 39.2 °F 94% 30.00 in 5.0 mi North 18.4 mph - N/A Thunderstorm Unknown
2:55 PM 39.6 °F 30.0 °F 38.8 °F 97% 30.00 in 5.0 mi North 19.6 mph - N/A   Overcast
3:15 PM 39.2 °F 29.8 °F 38.3 °F 97% 30.00 in 7.0 mi North 18.4 mph - N/A   Overcast
3:35 PM 39.9 °F 30.8 °F 38.5 °F 95% 29.97 in 10.0 mi NNE 18.4 mph - N/A   Overcast
3:55 PM 39.2 °F 29.6 °F 37.8 °F 95% 29.98 in 10.0 mi North 19.6 mph - N/A   Overcast
4:15 PM 38.7 °F 28.6 °F 37.0 °F 94% 29.97 in 10.0 mi North 20.7 mph - N/A   Overcast
4:35 PM 38.7 °F 28.8 °F 37.4 °F 95% 29.97 in 10.0 mi North 19.6 mph - N/A   Overcast
4:55 PM 38.3 °F 29.3 °F 36.9 °F 95% 29.97 in 10.0 mi North 16.1 mph 24.2 mph N/A   Overcast
5:15 PM 37.9 °F 27.9 °F 36.1 °F 93% 29.97 in 10.0 mi North 19.6 mph 27.6 mph N/A   Overcast
5:35 PM 37.0 °F 26.4 °F 35.1 °F 93% 29.97 in 10.0 mi North 20.7 mph 27.6 mph N/A   Overcast
5:55 PM 36.0 °F 25.3 °F 33.8 °F 92% 29.96 in 10.0 mi North 19.6 mph 26.5 mph N/A   Overcast
6:15 PM 35.4 °F 25.3 °F 34.3 °F 96% 29.99 in 2.5 mi North 17.3 mph 26.5 mph 0.06 in Rain Heavy Rain
6:35 PM 35.1 °F 25.9 °F 34.5 °F 98% 29.98 in 10.0 mi North 13.8 mph - 0.09 in   Overcast
6:55 PM 34.7 °F 24.0 °F 33.8 °F 97% 29.98 in 10.0 mi North 18.4 mph 27.6 mph 0.09 in   Light Drizzle
7:15 PM 34.2 °F 22.3 °F 32.9 °F 95% 29.99 in 10.0 mi North 21.9 mph 28.8 mph N/A   Overcast
7:35 PM 34.2 °F 23.6 °F 32.9 °F 95% 29.99 in 10.0 mi North 17.3 mph 27.6 mph N/A   Overcast
7:55 PM 34.2 °F 22.3 °F 32.9 °F 95% 29.98 in 10.0 mi North 21.9 mph 31.1 mph N/A Thunderstorm Overcast
8:15 PM 34.2 °F 22.6 °F 33.1 °F 96% 29.98 in 10.0 mi NNE 20.7 mph 29.9 mph N/A   Overcast
8:35 PM 34.3 °F 23.2 °F 33.3 °F 96% 29.98 in 10.0 mi NNE 19.6 mph 29.9 mph N/A Rain Light Rain
8:55 PM 34.3 °F 23.9 °F 33.1 °F 95% 29.99 in 10.0 mi NNE 17.3 mph 25.3 mph N/A Rain Light Rain
9:15 PM 34.2 °F 22.3 °F 33.1 °F 96% 29.98 in 10.0 mi NNE 21.9 mph - N/A Rain Light Rain
9:35 PM 34.3 °F 22.9 °F 32.9 °F 94% 30.00 in 10.0 mi North 20.7 mph 25.3 mph N/A Thunderstorm Overcast
9:55 PM 34.5 °F 23.1 °F 33.1 °F 94% 30.06 in 10.0 mi NNW 20.7 mph 27.6 mph N/A Thunderstorm Overcast
10:15 PM 34.3 °F 22.3 °F 33.1 °F 95% 30.07 in 4.0 mi NNW 23.0 mph 28.8 mph 0.02 in Rain , Thunderstorm Rain
10:35 PM 33.8 °F 22.8 °F 33.1 °F 97% 30.02 in 2.5 mi North 18.4 mph 23.0 mph 0.18 in Snow , Thunderstorm Thunderstorms and Snow
10:55 PM 33.8 °F 22.8 °F 33.1 °F 97% 29.99 in 4.0 mi North 18.4 mph 21.9 mph 0.24 in Rain , Thunderstorm Light Thunderstorms and Rain
11:55 PM 33.8 °F 21.6 °F 32.9 °F 96% 30.01 in 10.0 mi North 23.0 mph 26.5 mph 0.12 in Rain Light Rain